Chignik, AK

11:43 PM AKST on December 12, 2017 (GMT -0900)
Chignik

Weather History for PAJC - November, 2011

Change the Weather History Date:

Friday, November 4, 2011

  Actual Average Record
Temperature  
Mean Temperature 42 °F -  
Max Temperature 46 °F 40 °F 50 °F (2015)
Min Temperature 37 °F 34 °F 26 °F (2001)
Degree Days  
Heating Degree Days 24    
Moisture  
Dew Point 29 °F    
Average Humidity 66    
Maximum Humidity 75    
Minimum Humidity 53    
Precipitation  
Precipitation 0.00 in - - ()
Sea Level Pressure  
Sea Level Pressure 29.65 in    
Wind  
Wind Speed 22 mph (West)    
Max Wind Speed 44 mph    
Max Gust Speed 63 mph    
Visibility 8 miles    
Events      
Averages and records for this station are not official NWS values.
T = Trace of Precipitation, MM = Missing Value Source: NWS Daily Summary

Daily Weather History Graph

Daily Weather History Graph

Search for Another Location

Airport or City:

Trip Planner

Search our weather history database for the weather conditions in past years. The results will help you decide how hot, cold, wet, or windy it might be!

Date:

Astronomy

Nov. 04, 2011 Rise Set
Actual Time 9:47 AM AKDT 6:45 PM AKDT
Civil Twilight 9:07 AM AKDT 7:25 PM AKDT
Nautical Twilight 8:22 AM AKDT 8:10 PM AKDT
Astronomical Twilight 7:39 AM AKDT 8:53 PM AKDT
Moon 4:33 PM AKDT (11/4) 3:12 AM AKDT (11/4)
Length of Visible Light 10h 18m
Length of Day
8h 57m
Waxing Gibbous, 71% of the Moon is Illuminated
Nov 4
Waxing Gibbous
Nov 10
Full
Nov 18
Last Quarter
Nov 24
New
Dec 2
First Quarter

Hourly Weather History & Observations

Time (AKDT) Temp. Windchill Dew Point Humidity Pressure Visibility Wind Dir Wind Speed Gust Speed Precip Events Conditions
12:16 AM 44.6 °F 41.4 °F 32.0 °F 61% 29.19 in 10.0 mi ESE 5.8 mph - N/A   Mostly Cloudy
12:36 AM 44.6 °F - 30.2 °F 57% 29.20 in 10.0 mi Calm Calm - N/A   Mostly Cloudy
12:56 AM 46.4 °F 41.9 °F 30.2 °F 53% 29.20 in 10.0 mi SW 9.2 mph - N/A   Overcast
1:16 AM 46.4 °F - 30.2 °F 53% 29.21 in 10.0 mi Calm Calm - N/A   Overcast
1:36 AM 46.4 °F 41.9 °F 33.8 °F 62% 29.22 in 10.0 mi SW 9.2 mph - N/A   Overcast
1:56 AM 46.4 °F 42.4 °F 32.0 °F 57% 29.23 in 10.0 mi West 8.1 mph - N/A   Overcast
2:16 AM 44.6 °F 37.4 °F 30.2 °F 57% 29.25 in 10.0 mi WNW 16.1 mph 24.2 mph N/A   Overcast
2:36 AM 44.6 °F 35.3 °F 32.0 °F 61% 29.28 in 10.0 mi West 26.5 mph 36.8 mph N/A   Overcast
2:56 AM 44.6 °F 35.7 °F 32.0 °F 61% 29.29 in 10.0 mi West 24.2 mph 57.5 mph N/A   Overcast
3:16 AM - - - N/A% 29.29 in 10.0 mi West 38.0 mph 54.1 mph N/A   Overcast
3:36 AM - - - N/A% 29.31 in 6.0 mi West 40.3 mph 54.1 mph N/A   Mostly Cloudy
3:56 AM - - - N/A% 29.32 in 5.0 mi West 39.1 mph 51.8 mph N/A   Overcast
4:16 AM - - - N/A% 29.34 in 5.0 mi West 39.1 mph 55.2 mph N/A   Overcast
4:36 AM - - - N/A% 29.35 in 3.0 mi West 43.7 mph 56.4 mph N/A   Overcast
4:56 AM - - - N/A% 29.37 in 2.5 mi West 43.7 mph 57.5 mph N/A   Overcast
5:16 AM - - - N/A% 29.39 in 2.5 mi West 38.0 mph 54.1 mph N/A   Overcast
5:36 AM - - - N/A% 29.41 in 2.5 mi West 38.0 mph 63.3 mph N/A   Overcast
5:56 AM 39.2 °F 27.0 °F 32.0 °F 75% 29.44 in 3.0 mi West 32.2 mph 47.2 mph N/A   Overcast
6:16 AM 39.2 °F 27.0 °F 32.0 °F 75% 29.46 in 3.0 mi West 32.2 mph 55.2 mph N/A   Overcast
6:36 AM 39.2 °F 26.5 °F 32.0 °F 75% 29.48 in 4.0 mi West 35.7 mph 51.8 mph N/A   Overcast
6:56 AM - - - N/A% 29.51 in 2.5 mi West 33.4 mph 52.9 mph N/A   Overcast
7:16 AM 39.2 °F 27.0 °F 32.0 °F 75% 29.52 in 3.0 mi West 32.2 mph 54.1 mph N/A   Overcast
7:36 AM - - - N/A% 29.53 in 3.0 mi West 35.7 mph 52.9 mph N/A   Overcast
7:56 AM 39.2 °F 26.8 °F 32.0 °F 75% 29.56 in 5.0 mi West 33.4 mph 48.3 mph N/A   Overcast
8:16 AM 39.2 °F 27.4 °F 30.2 °F 70% 29.58 in 5.0 mi WNW 29.9 mph 48.3 mph N/A   Overcast
8:36 AM 37.4 °F 25.4 °F 30.2 °F 75% 29.59 in 7.0 mi WNW 27.6 mph 43.7 mph N/A   Overcast
8:56 AM 37.4 °F 23.8 °F 30.2 °F 75% 29.60 in 6.0 mi WNW 36.8 mph 48.3 mph N/A   Mostly Cloudy
9:16 AM 37.4 °F 25.2 °F 30.2 °F 75% 29.62 in 3.0 mi West 28.8 mph 43.7 mph N/A   Overcast
9:36 AM 37.4 °F 24.8 °F 30.2 °F 75% 29.64 in 5.0 mi West 31.1 mph 57.5 mph N/A   Overcast
9:56 AM 39.2 °F 28.3 °F 30.2 °F 70% 29.69 in 8.0 mi WNW 25.3 mph 42.6 mph N/A   Overcast
10:16 AM 37.4 °F 25.6 °F 30.2 °F 75% 29.70 in 10.0 mi West 26.5 mph 46.0 mph N/A   Overcast
10:36 AM 37.4 °F 24.8 °F 30.2 °F 75% 29.72 in 4.0 mi West 31.1 mph 43.7 mph N/A   Overcast
10:56 AM 37.4 °F 24.8 °F 30.2 °F 75% 29.72 in 5.0 mi WNW 31.1 mph 43.7 mph N/A   Mostly Cloudy
11:16 AM 37.4 °F 23.6 °F 30.2 °F 75% 29.71 in 7.0 mi West 38.0 mph 51.8 mph N/A   Overcast
11:36 AM 39.2 °F 26.5 °F 30.2 °F 70% 29.73 in 9.0 mi West 35.7 mph 51.8 mph N/A   Overcast
11:56 AM 37.4 °F 25.0 °F 30.2 °F 75% 29.75 in 9.0 mi West 29.9 mph 47.2 mph N/A   Mostly Cloudy
12:16 PM - - - N/A% 29.76 in 9.0 mi West 32.2 mph 49.5 mph N/A   Mostly Cloudy
12:36 PM 39.2 °F 27.0 °F 30.2 °F 70% 29.79 in 10.0 mi West 32.2 mph 54.1 mph N/A   Mostly Cloudy
12:56 PM 39.2 °F 28.0 °F 30.2 °F 70% 29.83 in 10.0 mi West 26.5 mph 41.4 mph N/A   Overcast
1:36 PM 39.2 °F 29.3 °F 28.4 °F 65% 29.85 in 10.0 mi WNW 20.7 mph 39.1 mph N/A   Overcast
1:56 PM 39.2 °F 30.5 °F 30.2 °F 70% 29.85 in 10.0 mi West 16.1 mph 39.1 mph N/A   Overcast
2:16 PM 41.0 °F 30.9 °F 28.4 °F 61% 29.85 in 10.0 mi West 24.2 mph 46.0 mph N/A   Overcast
2:36 PM 39.2 °F 27.6 °F 28.4 °F 65% 29.88 in 10.0 mi WSW 28.8 mph 44.9 mph N/A   Overcast
2:56 PM 39.2 °F 29.0 °F 28.4 °F 65% 29.90 in 10.0 mi West 21.9 mph 39.1 mph N/A   Overcast
3:16 PM 41.0 °F 31.1 °F 28.4 °F 61% 29.91 in 10.0 mi WSW 23.0 mph 33.4 mph N/A   Overcast
3:36 PM 41.0 °F 30.0 °F 28.4 °F 61% 29.92 in 10.0 mi WSW 28.8 mph 42.6 mph N/A   Overcast
3:56 PM 41.0 °F 32.2 °F 26.6 °F 57% 29.94 in 10.0 mi WSW 18.4 mph 31.1 mph N/A   Overcast
4:16 PM 39.2 °F 30.2 °F 26.6 °F 61% 29.94 in 10.0 mi NW 17.3 mph 24.2 mph N/A   Overcast
4:36 PM 39.2 °F 30.2 °F 28.4 °F 65% 29.94 in 10.0 mi WNW 17.3 mph 23.0 mph N/A   Overcast
4:56 PM 39.2 °F 28.5 °F 28.4 °F 65% 29.95 in 10.0 mi West 24.2 mph 38.0 mph N/A   Overcast
5:16 PM 39.2 °F 29.3 °F 28.4 °F 65% 29.96 in 10.0 mi WNW 20.7 mph 34.5 mph N/A   Overcast
5:36 PM 39.2 °F 28.7 °F 28.4 °F 65% 29.95 in 9.0 mi WNW 23.0 mph 27.6 mph N/A   Overcast
5:56 PM 37.4 °F 25.4 °F 28.4 °F 70% 29.95 in 10.0 mi WNW 27.6 mph 36.8 mph N/A   Overcast
6:16 PM 39.2 °F 27.6 °F 28.4 °F 65% 29.94 in 10.0 mi WNW 28.8 mph 38.0 mph N/A   Mostly Cloudy
6:36 PM 39.2 °F 28.0 °F 26.6 °F 61% 29.94 in 10.0 mi WNW 26.5 mph 36.8 mph N/A   Scattered Clouds
6:56 PM 39.2 °F 27.6 °F 26.6 °F 61% 29.94 in 10.0 mi WNW 28.8 mph 38.0 mph N/A   Clear
7:16 PM 39.2 °F 27.6 °F 26.6 °F 61% 29.94 in 10.0 mi WNW 28.8 mph 36.8 mph N/A   Clear
7:36 PM 39.2 °F 28.3 °F 26.6 °F 61% 29.94 in 10.0 mi WNW 25.3 mph 40.3 mph N/A   Clear
7:56 PM 39.2 °F 30.2 °F 26.6 °F 61% 29.96 in 10.0 mi West 17.3 mph 34.5 mph N/A   Partly Cloudy
8:16 PM 37.4 °F 28.5 °F 28.4 °F 70% 29.96 in 10.0 mi WNW 15.0 mph 26.5 mph N/A   Mostly Cloudy
8:56 PM 39.2 °F 29.3 °F 26.6 °F 61% 29.94 in 10.0 mi WNW 20.7 mph 29.9 mph N/A   Clear
9:16 PM 39.2 °F 30.8 °F 26.6 °F 61% 29.94 in 10.0 mi West 15.0 mph 24.2 mph N/A   Clear
9:36 PM 39.2 °F 28.7 °F 26.6 °F 61% 29.95 in 10.0 mi West 23.0 mph 28.8 mph N/A   Clear
9:56 PM 39.2 °F 35.0 °F 24.8 °F 56% 29.96 in 10.0 mi WNW 5.8 mph - N/A   Mostly Cloudy
10:16 PM 39.2 °F 34.2 °F 26.6 °F 61% 29.96 in 10.0 mi WNW 6.9 mph - N/A   Overcast
10:36 PM 39.2 °F 33.6 °F 26.6 °F 61% 29.96 in 10.0 mi West 8.1 mph - N/A   Mostly Cloudy
10:56 PM 39.2 °F 37.0 °F 26.6 °F 61% 29.96 in 10.0 mi WNW 3.5 mph - N/A   Mostly Cloudy
11:36 PM 39.2 °F 33.6 °F 26.6 °F 61% 29.95 in 10.0 mi West 8.1 mph - N/A   Scattered Clouds
11:56 PM 39.2 °F 33.0 °F 28.4 °F 65% 29.94 in 10.0 mi West 9.2 mph - N/A   Scattered Clouds